Time,TemperatureF,DewpointF,PressureIn,WindDirection,WindDirectionDegrees,WindSpeedMPH,WindSpeedGustMPH,Humidity,HourlyPrecipIn,Conditions,Clouds,dailyrainin,SoftwareType,DateUTC
2013-05-01 00:03:00,71.6,55.6,29.75,SSE,157,4.0,13.0,57,0.00,,,-99.99,WeatherLink 5.7,2013-05-01 05:03:00,
2013-05-01 00:18:00,71.6,55.1,29.76,SSE,157,3.0,12.0,56,0.00,,,-99.99,WeatherLink 5.7,2013-05-01 05:18:00,
2013-05-01 00:33:00,70.9,54.9,29.77,SSE,157,2.0,9.0,57,0.00,,,-99.99,WeatherLink 5.7,2013-05-01 05:33:00,
2013-05-01 00:48:00,69.6,54.6,29.78,SSE,157,1.0,10.0,59,0.00,,,-99.99,WeatherLink 5.7,2013-05-01 05:48:00,
2013-05-01 01:03:00,68.8,54.8,29.77,SSE,157,1.0,5.0,61,0.00,,,-99.99,WeatherLink 5.7,2013-05-01 06:03:00,
2013-05-01 01:18:00,67.6,55.0,29.77,SSE,157,1.0,5.0,64,0.00,,,-99.99,WeatherLink 5.7,2013-05-01 06:18:00,
2013-05-01 01:33:00,66.3,54.6,29.77,SSE,157,1.0,5.0,66,0.00,,,-99.99,WeatherLink 5.7,2013-05-01 06:33:00,
2013-05-01 01:48:00,66.3,55.0,29.78,SSE,157,1.0,7.0,67,0.00,,,-99.99,WeatherLink 5.7,2013-05-01 06:48:00,
2013-05-01 02:03:00,65.6,54.8,29.78,SSE,157,0.0,6.0,68,0.00,,,-99.99,WeatherLink 5.7,2013-05-01 07:03:00,
2013-05-01 02:18:00,64.8,54.8,29.78,SSE,157,1.0,4.0,70,0.00,,,-99.99,WeatherLink 5.7,2013-05-01 07:18:00,
2013-05-01 02:33:00,64.2,55.0,29.78,SSE,157,1.0,5.0,72,0.00,,,-99.99,WeatherLink 5.7,2013-05-01 07:33:00,
2013-05-01 02:48:00,64.3,55.1,29.77,SSE,157,1.0,6.0,72,0.00,,,-99.99,WeatherLink 5.7,2013-05-01 07:48:00,
2013-05-01 03:03:00,65.2,55.6,29.78,SSE,157,1.0,5.0,71,0.00,,,-99.99,WeatherLink 5.7,2013-05-01 08:03:00,
2013-05-01 03:18:00,66.0,55.5,29.78,SSE,157,3.0,11.0,69,0.00,,,-99.99,WeatherLink 5.7,2013-05-01 08:18:00,
2013-05-01 03:33:00,66.6,55.3,29.78,SSE,157,3.0,10.0,67,0.00,,,-99.99,WeatherLink 5.7,2013-05-01 08:33:00,
2013-05-01 03:48:00,66.8,54.7,29.79,SSE,157,3.0,10.0,65,0.00,,,-99.99,WeatherLink 5.7,2013-05-01 08:48:00,
2013-05-01 04:03:00,66.8,54.7,29.80,SSE,157,3.0,10.0,65,0.00,,,-99.99,WeatherLink 5.7,2013-05-01 09:03:00,
2013-05-01 04:18:00,67.1,54.5,29.80,SSE,157,4.0,11.0,64,0.00,,,-99.99,WeatherLink 5.7,2013-05-01 09:18:00,
2013-05-01 04:33:00,67.6,54.6,29.81,South,180,2.0,8.0,63,0.00,,,-99.99,WeatherLink 5.7,2013-05-01 09:33:00,
2013-05-01 04:49:00,67.4,54.4,29.82,SW,225,1.0,9.0,63,0.00,,,-99.99,WeatherLink 5.7,2013-05-01 09:49:00,
2013-05-01 05:03:00,66.9,54.7,29.83,West,270,0.0,6.0,65,0.00,,,-99.99,WeatherLink 5.7,2013-05-01 10:03:00,
2013-05-01 05:18:00,65.6,54.3,29.83,WSW,247,0.0,1.0,67,0.00,,,-99.99,WeatherLink 5.7,2013-05-01 10:18:00,
2013-05-01 05:33:00,65.0,54.6,29.84,WSW,247,0.0,3.0,69,0.00,,,-99.99,WeatherLink 5.7,2013-05-01 10:33:00,
2013-05-01 05:48:00,64.5,54.5,29.85,WSW,247,0.0,6.0,70,0.00,,,-99.99,WeatherLink 5.7,2013-05-01 10:48:00,
2013-05-01 06:03:00,64.5,54.9,29.85,WSW,247,0.0,6.0,71,0.00,,,-99.99,WeatherLink 5.7,2013-05-01 11:03:00,
2013-05-01 06:18:00,64.3,54.7,29.86,South,180,0.0,3.0,71,0.00,,,-99.99,WeatherLink 5.7,2013-05-01 11:18:00,
2013-05-01 06:33:00,64.3,55.1,29.86,South,180,0.0,1.0,72,0.00,,,-99.99,WeatherLink 5.7,2013-05-01 11:33:00,
2013-05-01 06:48:00,64.3,55.1,29.87,South,180,0.0,2.0,72,0.00,,,-99.99,WeatherLink 5.7,2013-05-01 11:48:00,
2013-05-01 07:03:00,64.5,55.3,29.87,South,180,0.0,4.0,72,0.00,,,-99.99,WeatherLink 5.7,2013-05-01 12:03:00,
2013-05-01 07:18:00,65.2,55.6,29.88,South,180,0.0,3.0,71,0.00,,,-99.99,WeatherLink 5.7,2013-05-01 12:18:00,
2013-05-01 07:33:00,66.4,55.5,29.88,WSW,247,0.0,4.0,68,0.00,,,-99.99,WeatherLink 5.7,2013-05-01 12:33:00,
2013-05-01 07:48:00,67.8,56.0,29.88,SSE,157,1.0,9.0,66,0.00,,,-99.99,WeatherLink 5.7,2013-05-01 12:48:00,
2013-05-01 08:03:00,68.6,55.9,29.89,SW,225,1.0,7.0,64,0.00,,,-99.99,WeatherLink 5.7,2013-05-01 13:03:00,
2013-05-01 08:18:00,69.4,55.8,29.90,WSW,247,1.0,9.0,62,0.00,,,-99.99,WeatherLink 5.7,2013-05-01 13:18:00,
2013-05-01 08:33:00,70.4,55.8,29.90,SW,225,2.0,12.0,60,0.00,,,-99.99,WeatherLink 5.7,2013-05-01 13:33:00,
2013-05-01 08:48:00,71.6,56.0,29.90,SSW,202,1.0,7.0,58,0.00,,,-99.99,WeatherLink 5.7,2013-05-01 13:48:00,
2013-05-01 09:03:00,72.1,56.0,29.90,SW,225,2.0,12.0,57,0.00,,,-99.99,WeatherLink 5.7,2013-05-01 14:03:00,
2013-05-01 09:18:00,72.5,55.4,29.91,WSW,247,2.0,8.0,55,0.00,,,-99.99,WeatherLink 5.7,2013-05-01 14:18:00,
2013-05-01 09:33:00,73.5,54.8,29.91,WSW,247,4.0,14.0,52,0.00,,,-99.99,WeatherLink 5.7,2013-05-01 14:33:00,
2013-05-01 09:48:00,73.9,54.6,29.91,SW,225,3.0,13.0,51,0.00,,,-99.99,WeatherLink 5.7,2013-05-01 14:48:00,
2013-05-01 10:03:00,74.0,54.2,29.91,West,270,2.0,15.0,50,0.00,,,-99.99,WeatherLink 5.7,2013-05-01 15:03:00,
2013-05-01 10:18:00,74.4,53.4,29.92,WSW,247,3.0,12.0,48,0.00,,,-99.99,WeatherLink 5.7,2013-05-01 15:18:00,
2013-05-01 10:33:00,75.3,54.3,29.92,WSW,247,2.0,13.0,48,0.00,,,-99.99,WeatherLink 5.7,2013-05-01 15:33:00,
2013-05-01 10:48:00,75.3,53.7,29.92,WSW,247,3.0,15.0,47,0.00,,,-99.99,WeatherLink 5.7,2013-05-01 15:48:00,
2013-05-01 11:03:00,76.1,55.0,29.92,West,270,2.0,11.0,48,0.00,,,-99.99,WeatherLink 5.7,2013-05-01 16:03:00,
2013-05-01 11:18:00,77.0,54.0,29.92,West,270,2.0,10.0,45,0.00,,,-99.99,WeatherLink 5.7,2013-05-01 16:18:00,
2013-05-01 11:33:00,77.6,53.3,29.92,West,270,3.0,12.0,43,0.00,,,-99.99,WeatherLink 5.7,2013-05-01 16:33:00,
2013-05-01 11:48:00,77.4,53.1,29.91,West,270,4.0,14.0,43,0.00,,,-99.99,WeatherLink 5.7,2013-05-01 16:48:00,
2013-05-01 12:03:00,77.7,53.4,29.91,SSE,157,3.0,12.0,43,0.00,,,-99.99,WeatherLink 5.7,2013-05-01 17:03:00,
2013-05-01 12:18:00,78.3,54.6,29.91,SSE,157,3.0,12.0,44,0.00,,,-99.99,WeatherLink 5.7,2013-05-01 17:18:00,
2013-05-01 12:33:00,79.0,54.6,29.91,SSE,157,2.0,11.0,43,0.00,,,-99.99,WeatherLink 5.7,2013-05-01 17:33:00,
2013-05-01 12:48:00,78.5,54.8,29.91,SSE,157,3.0,12.0,44,0.00,,,-99.99,WeatherLink 5.7,2013-05-01 17:48:00,
2013-05-01 13:03:00,78.8,54.4,29.91,SSE,157,3.0,10.0,43,0.00,,,-99.99,WeatherLink 5.7,2013-05-01 18:03:00,
2013-05-01 13:18:00,79.2,54.1,29.91,SSE,157,3.0,14.0,42,0.00,,,-99.99,WeatherLink 5.7,2013-05-01 18:18:00,
2013-05-01 13:33:00,80.3,57.0,29.91,SSE,157,2.0,10.0,45,0.00,,,-99.99,WeatherLink 5.7,2013-05-01 18:33:00,
2013-05-01 13:48:00,80.5,54.6,29.91,SSE,157,3.0,11.0,41,0.00,,,-99.99,WeatherLink 5.7,2013-05-01 18:48:00,
2013-05-01 14:03:00,80.5,51.8,29.91,South,180,2.0,11.0,37,0.00,,,-99.99,WeatherLink 5.7,2013-05-01 19:03:00,
2013-05-01 14:18:00,79.9,52.7,29.91,West,270,1.0,6.0,39,0.00,,,-99.99,WeatherLink 5.7,2013-05-01 19:18:00,
2013-05-01 14:33:00,81.2,53.2,29.91,SSE,157,3.0,15.0,38,0.00,,,-99.99,WeatherLink 5.7,2013-05-01 19:33:00,
2013-05-01 14:48:00,81.4,51.1,29.91,SSE,157,2.0,8.0,35,0.00,,,-99.99,WeatherLink 5.7,2013-05-01 19:48:00,
2013-05-01 15:03:00,80.5,48.7,29.91,SSE,157,2.0,9.0,33,0.00,,,-99.99,WeatherLink 5.7,2013-05-01 20:03:00,
2013-05-01 15:18:00,82.4,51.2,29.91,SSE,157,4.0,14.0,34,0.00,,,-99.99,WeatherLink 5.7,2013-05-01 20:18:00,
2013-05-01 15:33:00,83.0,45.6,29.91,SSE,157,4.0,16.0,27,0.00,,,-99.99,WeatherLink 5.7,2013-05-01 20:33:00,
2013-05-01 15:48:00,82.2,46.8,29.91,SSE,157,7.0,15.0,29,0.00,,,-99.99,WeatherLink 5.7,2013-05-01 20:48:00,
2013-05-01 16:03:00,82.6,48.0,29.91,SSE,157,3.0,12.0,30,0.00,,,-99.99,WeatherLink 5.7,2013-05-01 21:03:00,
2013-05-01 16:18:00,83.2,50.3,29.91,SSE,157,5.0,12.0,32,0.00,,,-99.99,WeatherLink 5.7,2013-05-01 21:18:00,
2013-05-01 16:33:00,81.4,47.9,29.91,SSE,157,6.0,14.0,31,0.00,,,-99.99,WeatherLink 5.7,2013-05-01 21:33:00,
2013-05-01 16:48:00,82.0,48.4,29.91,SSE,157,4.0,13.0,31,0.00,,,-99.99,WeatherLink 5.7,2013-05-01 21:48:00,
2013-05-01 17:03:00,82.2,47.7,29.91,SSE,157,5.0,14.0,30,0.00,,,-99.99,WeatherLink 5.7,2013-05-01 22:03:00,
2013-05-01 17:18:00,81.6,46.3,29.92,SSE,157,4.0,11.0,29,0.00,,,-99.99,WeatherLink 5.7,2013-05-01 22:18:00,
2013-05-01 17:33:00,82.2,48.6,29.92,South,180,3.0,12.0,31,0.00,,,-99.99,WeatherLink 5.7,2013-05-01 22:33:00,
2013-05-01 17:48:00,82.0,45.7,29.92,South,180,3.0,11.0,28,0.00,,,-99.99,WeatherLink 5.7,2013-05-01 22:48:00,
2013-05-01 18:03:00,82.2,45.8,29.92,South,180,2.0,7.0,28,0.00,,,-99.99,WeatherLink 5.7,2013-05-01 23:03:00,
2013-05-01 18:18:00,82.0,45.7,29.92,South,180,3.0,11.0,28,0.00,,,-99.99,WeatherLink 5.7,2013-05-01 23:18:00,
2013-05-01 18:33:00,81.8,46.4,29.92,South,180,2.0,9.0,29,0.00,,,-99.99,WeatherLink 5.7,2013-05-01 23:33:00,
2013-05-01 18:48:00,81.4,50.3,29.92,SSE,157,1.0,9.0,34,0.00,,,-99.99,WeatherLink 5.7,2013-05-01 23:48:00,
2013-05-01 19:03:00,80.3,47.7,29.93,South,180,1.0,9.0,32,0.00,,,-99.99,WeatherLink 5.7,2013-05-02 00:03:00,
2013-05-01 19:18:00,79.9,47.4,29.93,SSE,157,0.0,4.0,32,0.00,,,-99.99,WeatherLink 5.7,2013-05-02 00:18:00,
2013-05-01 19:33:00,78.6,47.9,29.93,SSE,157,0.0,1.0,34,0.00,,,-99.99,WeatherLink 5.7,2013-05-02 00:33:00,
2013-05-01 19:48:00,77.7,50.1,29.93,SSE,157,0.0,3.0,38,0.00,,,-99.99,WeatherLink 5.7,2013-05-02 00:48:00,
2013-05-01 20:03:00,76.7,49.2,29.94,North,-999,0.0,0.0,38,0.00,,,-99.99,WeatherLink 5.7,2013-05-02 01:03:00,
2013-05-01 20:18:00,75.6,50.2,29.94,North,-999,0.0,0.0,41,0.00,,,-99.99,WeatherLink 5.7,2013-05-02 01:18:00,
2013-05-01 20:33:00,74.0,50.1,29.94,North,-999,0.0,0.0,43,0.00,,,-99.99,WeatherLink 5.7,2013-05-02 01:33:00,
2013-05-01 20:48:00,72.8,50.2,29.95,North,-999,0.0,0.0,45,0.00,,,-99.99,WeatherLink 5.7,2013-05-02 01:48:00,
2013-05-01 21:03:00,71.1,51.5,29.96,North,-999,0.0,0.0,50,0.00,,,-99.99,WeatherLink 5.7,2013-05-02 02:03:00,
2013-05-01 21:18:00,69.4,51.5,29.97,SSE,157,1.0,10.0,53,0.00,,,-99.99,WeatherLink 5.7,2013-05-02 02:18:00,
2013-05-01 21:33:00,67.3,50.1,29.98,NNW,337,4.0,11.0,54,0.00,,,-99.99,WeatherLink 5.7,2013-05-02 02:33:00,
2013-05-01 21:48:00,66.0,49.8,29.99,NNW,337,4.0,9.0,56,0.00,,,-99.99,WeatherLink 5.7,2013-05-02 02:48:00,
2013-05-01 22:03:00,64.8,48.7,29.99,NNW,337,4.0,9.0,56,0.00,,,-99.99,WeatherLink 5.7,2013-05-02 03:03:00,
2013-05-01 22:18:00,63.4,48.4,30.00,NNW,337,4.0,10.0,58,0.00,,,-99.99,WeatherLink 5.7,2013-05-02 03:18:00,
2013-05-01 22:33:00,62.4,48.3,30.00,NNW,337,4.0,10.0,60,0.00,,,-99.99,WeatherLink 5.7,2013-05-02 03:33:00,
2013-05-01 22:48:00,61.5,47.9,30.01,NNW,337,3.0,9.0,61,0.00,,,-99.99,WeatherLink 5.7,2013-05-02 03:48:00,
2013-05-01 23:03:00,61.0,49.1,30.01,NNW,337,3.0,11.0,65,0.00,,,-99.99,WeatherLink 5.7,2013-05-02 04:03:00,
2013-05-01 23:18:00,60.4,47.7,30.01,NNW,337,3.0,11.0,63,0.00,,,-99.99,WeatherLink 5.7,2013-05-02 04:18:00,
2013-05-01 23:33:00,59.9,48.1,30.01,NNW,337,3.0,10.0,65,0.00,,,-99.99,WeatherLink 5.7,2013-05-02 04:33:00,
2013-05-01 23:48:00,59.8,48.8,30.02,NNW,337,4.0,10.0,67,0.00,,,-99.99,WeatherLink 5.7,2013-05-02 04:48:00,